Location: Unspecified
(33.4390°N, 83.7350°W)
Time: 06:49:26
(UTC-04:00)

Daily predictions for brighter satellites

Satellite Brightness Start Highest point End
(mag) Time Altitude Azimuth Time Altitude Azimuth Time Altitude Azimuth
Resurs 01 Rocket 1.7 21:01:13 10° SSE 21:05:36 69° ENE 21:10:01 10° N
Cosmos 1666 Rocket 3.9 21:03:44 10° SSW 21:08:05 70° W 21:12:26 10° N
Cosmos 2298 Rocket 4.4 21:05:37 10° S 21:10:32 41° ESE 21:15:29 10° NNE
Cosmos 1937 Rocket 3.9 21:07:34 10° SSE 21:12:17 38° E 21:17:00 10° NE
Sich 1 3.7 21:09:08 10° SSW 21:13:22 59° W 21:17:40 10° N
ISS -2.2 21:12:07 10° S 21:14:16 17° SE 21:16:25 10° E
Cosmos 2369 Rocket 3.5 21:10:46 10° SE 21:14:26 18° E 21:18:08 10° ENE
ATLAS 3B R/B 4.1 21:09:23 10° SW 21:16:32 47° NW 21:23:29 10° NNE
Cosmos 1933 Rocket 3.8 21:13:03 10° SSE 21:17:10 46° E 21:21:19 10° NNE
Meteor 1-29 4.3 21:19:04 10° NE 21:21:53 22° E 21:24:38 10° SSE
Cosmos 1513 Rocket 4.4 21:16:29 10° N 21:22:33 73° E 21:28:36 10° SSE
Helios 1B rocket 3.1 21:19:14 10° NNE 21:22:59 34° E 21:26:43 10° SSE
Cosmos 1862 Rocket 4.2 21:20:33 10° N 21:24:45 39° E 21:28:57 10° SSE
Cosmos 1400 Rocket 3.9 21:21:57 10° SSW 21:25:55 50° W 21:29:53 10° N
Tiangong 2 3.7 21:36:11 10° NW 21:38:22 16° N 21:40:32 10° NE
Helios 1A 3.3 21:36:14 13° SE 21:39:46 47° ENE 21:43:48 10° N
OAO 2 Rocket 3.3 21:35:28 10° W 21:40:32 86° N 21:44:41 15° E
Meteor 2-3 Rocket 3.9 21:35:41 10° SSE 21:41:13 52° E 21:46:44 10° NNE
Milstar 3 4.1 21:30:31 10° SW 21:42:37 40° SSE 21:49:19 13° E
Hubble Space Telescope 1.8 21:39:12 10° WSW 21:42:55 32° S 21:45:15 18° SE
Spot 2 Rocket 4.2 21:38:23 10° S 21:43:21 55° W 21:48:22 10° NNW
ERS-1 Rocket 3.9 21:43:16 17° ESE 21:46:21 30° ENE 21:50:44 10° N
Aurora 2 Rocket 3.8 21:45:21 10° WSW 21:49:18 24° SSW 21:51:06 18° SSE
Spot 1 4.4 21:48:34 16° SSE 21:52:10 59° ENE 21:56:59 10° N
NOSS 3-2 (A) 4.0 21:47:04 10° SW 21:52:54 61° WNW 21:59:15 10° NNE
Cosmos 1315 Rocket 4.0 21:50:52 10° SSW 21:54:40 44° W 21:58:34 10° N
COSMOS 2455 2.9 21:50:15 10° S 21:56:04 55° ESE 22:01:56 10° NE
SL-19 R/B 4.4 21:51:09 10° SSE 21:56:46 87° WSW 22:02:44 10° NNW
USA 186 4.0 21:56:53 10° SW 21:58:38 17° W 22:00:29 10° NW
SAR-Lupe-4 3.9 21:57:18 27° SE 21:58:50 45° ENE 22:02:16 10° N
Cosmos 2344 4.3 21:52:53 10° SSE 21:59:21 29° ESE 22:05:52 10° NE
Cosmos 1703 Rocket 4.3 21:57:16 10° NNE 22:01:21 35° E 22:02:56 27° ESE
Tsikada Rocket 4.4 21:55:09 10° SSW 22:01:21 67° W 22:07:31 10° N
Okean 1-7 4.3 21:57:53 10° NNE 22:01:27 24° ENE 22:02:24 22° E
YAOGAN 6 2.5 21:59:20 21° SSE 22:01:46 83° E 22:05:29 10° N
ARGOS 4.1 22:02:19 22° ESE 22:04:42 31° ENE 22:09:23 10° N
USA 215 3.9 22:01:12 18° ESE 22:05:49 46° NE 22:12:02 10° NNW
Cosmos 2082 Rocket 3.1 22:00:34 10° NW 22:05:56 45° WSW 22:11:18 10° S
CZ-4B DEB 2.4 22:05:36 40° SSE 22:06:29 77° ENE 22:09:25 10° N
Aureole 3 3.6 22:08:19 31° E 22:08:19 31° E 22:10:48 10° NNE
Envisat 4.0 22:05:20 10° S 22:10:08 44° W 22:14:59 10° NNW
NOSS 3-2 (C) 4.0 22:05:47 10° SW 22:11:35 60° WNW 22:17:57 10° NNE
GPS 2-04 Rocket1 2.6 22:11:45 10° W 22:15:23 68° N 22:17:03 28° ENE
Cosmos 1869 Rocket 3.5 22:14:14 29° SSE 22:16:16 59° E 22:20:32 10° NNE
Cosmos 1825 3.0 22:20:27 33° E 22:20:27 33° E 22:23:32 10° NNE
SAR-Lupe-1 3.9 22:19:11 46° SSE 22:20:08 78° ENE 22:23:42 10° N
Cosmos 1833 Rocket 4.1 22:16:24 10° NW 22:21:24 34° WSW 22:26:24 10° SSW
Cosmos 1125 Rocket 3.8 22:20:05 30° SSE 22:22:12 45° ESE 22:27:10 10° NNE
Cosmos 2221 Rocket 4.0 22:18:08 10° N 22:22:21 43° E 22:23:10 38° ESE
Shenzhou-11 Module 3.8 22:22:43 10° NW 22:25:20 25° NNE 22:26:01 23° NE
Cosmos 372 Rocket 4.4 22:25:05 37° SE 22:25:56 39° ESE 22:30:41 10° NNE
Cosmos 1892 4.4 22:26:01 10° SW 22:29:31 33° W 22:33:02 10° NNW
Cosmos 1408 2.9 22:29:58 49° ENE 22:29:58 49° ENE 22:33:19 10° NNE
Cosmos 1634 Rocket 3.9 22:23:43 10° N 22:30:02 84° E 22:33:45 27° S
H-2A R/B 2.7 22:34:48 36° ESE 22:36:02 41° ENE 22:41:03 10° N
Lacrosse 5 rocket 1.0 22:32:56 10° SW 22:36:30 76° NW 22:40:07 10° NE
CENTAUR R/B 2.3 22:30:55 10° SSW 22:36:40 69° ESE 22:43:09 10° NE
Cosmos 2263 4.1 22:33:30 13° SSW 22:38:42 77° ESE 22:44:27 10° NNE
YAOGAN 11 4.3 22:42:35 54° ESE 22:43:06 58° ENE 22:47:33 10° N
NOAA 11 4.4 22:42:52 31° S 22:45:29 68° WSW 22:50:57 10° NNW
MetOp-A 4.1 22:43:39 38° S 22:45:45 80° WSW 22:51:07 10° NNW
Cosmos 1346 Rocket 4.1 22:43:52 10° NNW 22:47:31 36° W 22:49:00 26° SW
Cosmos 1943 Rocket 2.0 22:45:18 34° S 22:47:46 72° ESE 22:53:19 10° NNE
ISS -2.1 22:47:33 10° WSW 22:50:32 33° NW 22:53:30 10° NNE
Delta 168 4.3 22:47:14 10° WSW 22:50:20 32° SSW 22:50:20 32° SSW
Cosmos 2084 4.2 22:48:36 10° NNW 22:51:48 36° NE 22:51:48 36° NE
Cosmos 2369 Rocket 3.0 22:52:31 10° SW 22:57:58 49° WNW 23:03:28 10° N
USA 245 4.4 22:56:32 45° S 22:58:28 83° WSW 23:04:50 10° NNW
Meteor 1-10 Rocket 4.2 22:52:39 10° N 22:58:38 86° E 23:00:09 53° SSE
Meteor 1-27 Rocket 4.0 22:55:10 10° N 23:00:45 50° ENE 23:01:08 49° E
Terra 3.0 23:02:02 30° ENE 23:02:02 30° ENE 23:05:40 10° N
Cosmos 1340 3.8 22:57:58 10° N 23:00:29 36° NNE 23:00:29 36° NNE
SPOT 5 3.0 23:00:36 57° S 23:01:44 84° WSW 23:07:07 10° NNW
H-2A R/B 4.2 23:03:25 15° NE 23:03:25 15° NE 23:04:48 10° NNE
Cosmos 1900 4.4 22:59:55 10° NNW 23:05:04 72° WSW 23:05:37 65° SSW
Cosmos 1606 3.2 23:01:32 10° N 23:04:37 56° NNW 23:04:37 56° NNW
Cosmos 2279 Rocket 3.9 23:01:14 10° N 23:07:30 83° W 23:09:17 50° S
SL-08 RB Rocket 3.8 23:09:03 68° SW 23:09:20 70° WSW 23:14:01 10° NNW
Lacrosse 4 Rocket 3.2 23:07:40 10° N 23:10:44 24° NE 23:10:44 24° NE
Tiangong 2 3.5 23:12:45 10° NW 23:14:17 24° NW 23:14:17 24° NW
Cosmos 2180 Rocket 4.5 23:11:45 10° N 23:18:10 84° W 23:19:32 58° S
Meteor 2-6 Rocket 4.5 23:13:00 10° NNW 23:18:54 69° W 23:20:09 54° SSW
DMSP B5D2-2 3.9 23:14:32 10° NNE 23:19:46 87° WNW 23:19:59 83° SW
Cosmos 1782 4.0 23:16:39 10° NNW 23:20:03 39° WNW 23:20:03 39° WNW
Cosmos 158 Rocket 3.9 23:16:20 10° NNW 23:20:43 70° NNE 23:20:43 70° NNE
OAO 2 Rocket 4.5 23:20:29 10° W 23:23:38 32° WSW 23:23:38 32° WSW
GEOS 3 Rocket 3.8 23:27:00 61° NE 23:27:00 61° NE 23:32:01 10° NNW
Cosmos 1048 Rocket 4.0 23:23:24 10° NNW 23:28:26 80° NNW 23:28:26 80° NNW
SPOT 1/Viking Rocket 4.0 23:33:51 54° WSW 23:33:57 54° W 23:39:03 10° NNW
ATLAS 5 CENTAUR R/B 2.7 23:30:00 10° NNW 23:36:01 55° ENE 23:36:18 54° ENE
USA 215 3.8 23:48:33 43° SW 23:48:45 43° SW 23:54:57 10° WNW
Cosmos 1656 Rocket 4.0 23:53:28 61° NNW 23:53:28 61° NNW 23:58:08 10° NNE
